This is the latest recevied weather packets stored in our database for station/object KD6VEX-1. If no packets are shown the sender has not sent any weather packets the latest 1 day(s).
| Time | Temp. | Humidity | Pressure | Rain* | Wind** | Luminosity | Snow |
|---|---|---|---|---|---|---|---|
| 1778027736 | 21.11° C | 50% | 1013.9 hPa | 0 mm | - | - | - |
| 1778027435 | 21.11° C | 49% | 1014 hPa | 0 mm | - | - | - |
| 1778026535 | 21.11° C | 49% | 1013.8 hPa | 0 mm | - | - | - |
| 1778024085 | 21.67° C | 46% | 1013.8 hPa | 0 mm | - | - | - |
| 1778023781 | 21.67° C | 45% | 1013.8 hPa | 0 mm | - | - | - |
| 1778023182 | 21.67° C | 45% | 1013.8 hPa | 0 mm | - | - | - |
| 1778022581 | 21.11° C | 46% | 1014 hPa | 0 mm | - | - | - |
| 1778022282 | 21.67° C | 46% | 1014.1 hPa | 0 mm | - | - | - |
| 1778021776 | 21.67° C | 47% | 1014 hPa | 0 mm | - | - | - |
| 1778021176 | 21.11° C | 48% | 1014 hPa | 0 mm | - | - | - |
| 1778020876 | 21.11° C | 47% | 1014.1 hPa | 0 mm | - | - | - |
| 1778020276 | 21.11° C | 47% | 1014.1 hPa | 0 mm | - | - | - |
| 1778019676 | 21.11° C | 49% | 1014.1 hPa | 0 mm | - | - | - |
| 1778019376 | 21.11° C | 49% | 1014.2 hPa | 0 mm | - | - | - |
| 1778017841 | 19.44° C | 52% | 1014.3 hPa | 0 mm | - | - | - |
| 1778017541 | 19.44° C | 51% | 1014.4 hPa | 0 mm | - | - | - |
| 1778017241 | 19.44° C | 52% | 1014.4 hPa | 0 mm | - | - | - |
| 1778016641 | 20° C | 50% | 1014.4 hPa | 0 mm | - | - | - |
| 1778015441 | 20.56° C | 50% | 1014.4 hPa | 0 mm | - | - | - |
| 1778015141 | 20.56° C | 49% | 1014.2 hPa | 0 mm | - | - | - |
| 1778014841 | 21.11° C | 49% | 1014.3 hPa | 0 mm | - | - | - |
| 1778014243 | 20.56° C | 49% | 1014.3 hPa | 0 mm | - | - | - |
| 1778013408 | 22.22° C | 46% | 1014.3 hPa | 0 mm | - | - | - |
* Rain latest hour (hover to see other rain measurements)
** Current wind speed in m/s (hover to see current wind gust speed)